EW6892 Weather Reports


Display with metric or nautical units.
time (UTC)temp
F
wind
direction
speed
MPH
gust
MPH
rain 1hr
in
rain 24hr
in
rain mn
in
humidity
%
barometer
mb
20181021010516 71 0.0 0.0 0.00 0.00 0.00 35 1011.7
20181021005518 72 0.0 0.0 0.00 0.00 0.00 31 1011.6
20181021004519 73 0.0 0.0 0.00 0.00 0.00 28 1011.7
20181021003518 74 0.0 0.0 0.00 0.00 0.00 26 1011.6
20181021002519 75 0.0 0.0 0.00 0.00 0.00 25 1011.7
20181021001521 76 0.0 0.0 0.00 0.00 0.00 24 1011.8
20181021000520 76 0.0 0.0 0.00 0.00 0.00 24 1011.9
20181020235517 75 0.0 1.0 0.00 0.00 0.00 23 1012.0
20181020234519 76 0.0 0.0 0.00 0.00 0.00 24 1012.2
20181020233516 77 0.0 0.0 0.00 0.00 0.00 22 1012.2
20181020232518 77 45 0.0 1.0 0.00 0.00 0.00 21 1012.2
20181020231517 75 45 0.0 1.0 0.00 0.00 0.00 24 1012.4
20181020230519 75 0.0 0.0 0.00 0.00 0.00 25 1012.4
20181020225519 75 0.0 1.0 0.00 0.00 0.00 25 1012.6
20181020224518 75 45 0.0 2.0 0.00 0.00 0.00 24 1012.7
20181020223515 75 0.0 1.0 0.00 0.00 0.00 26 1012.8
20181020222518 75 0.0 0.0 0.00 0.00 0.00 24 1012.9
20181020221520 75 0.0 1.0 0.00 0.00 0.00 24 1013.1
20181020220517 74 0.0 0.0 0.00 0.00 0.00 26 1013.3
20181020215520 74 45 0.0 1.0 0.00 0.00 0.00 25 1013.5
20181020214516 74 0.0 0.0 0.00 0.00 0.00 26 1013.8
20181020213519 73 45 0.0 2.0 0.00 0.00 0.00 26 1013.7
20181020212517 73 0.0 0.0 0.00 0.00 0.00 25 1014.0
20181020211516 72 45 0.0 1.0 0.00 0.00 0.00 22 1014.2
20181020210520 71 45 0.0 2.0 0.00 0.00 0.00 27 1014.5
20181020205518 70 0.0 0.0 0.00 0.00 0.00 32 1014.7
20181020204518 70 0.0 0.0 0.00 0.00 0.00 32 1014.9
20181020203516 69 225 0.0 2.0 0.00 0.00 0.00 31 1015.1
20181020202518 68 337 0.0 1.0 0.00 0.00 0.00 34 1015.4
20181020201521 68 22 0.0 1.0 0.00 0.00 0.00 33 1015.8
20181020200515 69 0.0 0.0 0.00 0.00 0.00 33 1015.9
20181020195526 70 45 0.0 1.0 0.00 0.00 0.00 28 1016.2
20181020194518 72 45 0.0 1.0 0.00 0.00 0.00 31 1016.3
20181020193518 70 45 0.0 2.0 0.00 0.00 0.00 32 1016.7
20181020192518 72 0.0 1.0 0.00 0.00 0.00 30 1016.8
20181020191517 75 0.0 1.0 0.00 0.00 0.00 28 1016.9
20181020190518 74 45 0.0 2.0 0.00 0.00 0.00 30 1017.1
20181020185520 72 0.0 1.0 0.00 0.00 0.00 33 1017.1
20181020184518 69 0.0 1.0 0.00 0.00 0.00 37 1017.3
20181020183515 67 45 0.0 2.0 0.00 0.00 0.00 38 1017.5
20181020182517 67 74 0.0 2.0 0.00 0.00 0.00 40 1017.6
20181020181515 64 52 0.0 1.0 0.00 0.00 0.00 45 1017.9
20181020180517 60 0.0 1.0 0.00 0.00 0.00 48 1018.0
20181020175518 62 45 0.0 1.0 0.00 0.00 0.00 45 1018.3
20181020174521 64 0.0 0.0 0.00 0.00 0.00 45 1018.3
20181020173518 62 90 0.0 1.0 0.00 0.00 0.00 51 1018.5
20181020172515 57 0.0 0.0 0.00 0.00 0.00 57 1018.6
20181020171516 53 90 0.0 1.0 0.00 0.00 0.00 63 1018.8
20181020170519 50 0.0 0.0 0.00 0.00 0.00 68 1018.8
20181020165515 49 0.0 0.0 0.00 0.00 0.00 71 1019.0
20181020164519 48 0.0 0.0 0.00 0.00 0.00 71 1019.2
20181020163520 48 0.0 0.0 0.00 0.00 0.00 74 1019.3
20181020162520 46 0.0 0.0 0.00 0.00 0.00 76 1019.4
20181020161517 45 0.0 0.0 0.00 0.00 0.00 81 1019.4
20181020160516 43 0.0 0.0 0.00 0.00 0.00 88 1019.3
20181020155520 41 0.0 0.0 0.00 0.00 0.00 90 1019.4
20181020154518 40 0.0 0.0 0.00 0.00 0.00 92 1019.5
20181020153516 39 0.0 0.0 0.00 0.00 0.00 92 1019.4
20181020152520 39 0.0 0.0 0.00 0.00 0.00 93 1019.5
20181020151517 38 0.0 0.0 0.00 0.00 0.00 93 1019.7
20181020150520 38 0.0 0.0 0.00 0.00 0.00 93 1019.5
20181020145518 38 0.0 0.0 0.00 0.00 0.00 92 1019.5
20181020144520 38 0.0 0.0 0.00 0.00 0.00 92 1019.5
20181020143518 38 0.0 0.0 0.00 0.00 0.00 92 1019.5
20181020142516 38 0.0 0.0 0.00 0.00 0.00 92 1019.5
20181020141519 38 0.0 0.0 0.00 0.00 0.00 92 1019.6
20181020140517 38 0.0 0.0 0.00 0.00 0.00 92 1019.6
20181020135519 38 0.0 0.0 0.00 0.00 0.00 92 1019.6
20181020134522 39 0.0 0.0 0.00 0.00 0.00 91 1019.7
20181020133519 39 0.0 0.0 0.00 0.00 0.00 89 1019.8
20181020132516 39 0.0 0.0 0.00 0.00 0.00 89 1019.8
20181020131520 39 0.0 0.0 0.00 0.00 0.00 89 1019.7
20181020130517 39 0.0 0.0 0.00 0.00 0.00 89 1019.8
20181020125516 39 0.0 0.0 0.00 0.00 0.00 89 1019.7
20181020124520 39 0.0 0.0 0.00 0.00 0.00 89 1019.7
20181020123516 40 0.0 0.0 0.00 0.00 0.00 89 1019.6
20181020122519 40 0.0 0.0 0.00 0.00 0.00 88 1019.6
20181020121516 40 0.0 0.0 0.00 0.00 0.00 88 1019.6
20181020120516 40 0.0 0.0 0.00 0.00 0.00 88 1019.6
20181020115516 41 0.0 0.0 0.00 0.00 0.00 87 1019.6
20181020114520 41 0.0 0.0 0.00 0.00 0.00 87 1019.6
20181020113519 41 0.0 0.0 0.00 0.00 0.00 86 1019.6
20181020112517 41 0.0 0.0 0.00 0.00 0.00 86 1019.6
20181020111519 41 0.0 0.0 0.00 0.00 0.00 86 1019.6
20181020110517 42 0.0 0.0 0.00 0.00 0.00 85 1019.6
20181020105518 42 0.0 0.0 0.00 0.00 0.00 85 1019.7
20181020104516 42 0.0 0.0 0.00 0.00 0.00 85 1019.7
20181020103516 42 0.0 1.0 0.00 0.00 0.00 83 1019.7
20181020102517 43 0.0 0.0 0.00 0.00 0.00 82 1019.7
20181020101517 43 0.0 0.0 0.00 0.00 0.00 82 1019.8
20181020100520 43 0.0 0.0 0.00 0.00 0.00 82 1019.7
20181020095520 44 0.0 0.0 0.00 0.00 0.00 81 1019.7
20181020094519 44 0.0 0.0 0.00 0.00 0.00 82 1019.9
20181020093516 44 0.0 0.0 0.00 0.00 0.00 82 1020.0
20181020092520 44 0.0 0.0 0.00 0.00 0.00 82 1020.0
20181020091516 44 0.0 0.0 0.00 0.00 0.00 81 1020.0
20181020090517 44 0.0 0.0 0.00 0.00 0.00 81 1020.0
20181020085517 44 0.0 0.0 0.00 0.00 0.00 81 1019.9
20181020084520 45 0.0 0.0 0.00 0.00 0.00 81 1020.0
20181020083516 45 0.0 0.0 0.00 0.00 0.00 81 1020.1
20181020082520 46 0.0 0.0 0.00 0.00 0.00 81 1020.1
20181020081518 46 0.0 0.0 0.00 0.00 0.00 81 1020.2
20181020080516 46 0.0 0.0 0.00 0.00 0.00 79 1020.2
20181020075518 46 0.0 0.0 0.00 0.00 0.00 78 1020.1
20181020074518 47 0.0 0.0 0.00 0.00 0.00 77 1020.1
20181020073526 47 0.0 0.0 0.00 0.00 0.00 76 1020.1
20181020072519 47 0.0 0.0 0.00 0.00 0.00 76 1020.0
20181020071518 47 0.0 0.0 0.00 0.00 0.00 75 1020.0
20181020070518 48 0.0 0.0 0.00 0.00 0.00 74 1020.0
20181020065516 48 0.0 0.0 0.00 0.00 0.00 74 1020.0
20181020064517 49 0.0 0.0 0.00 0.00 0.00 74 1020.2
20181020063518 49 0.0 0.0 0.00 0.00 0.00 74 1020.2
20181020062516 49 0.0 0.0 0.00 0.00 0.00 73 1020.1
20181020061515 49 0.0 0.0 0.00 0.00 0.00 72 1020.2
20181020060517 50 0.0 0.0 0.00 0.00 0.00 72 1020.1
20181020055518 50 0.0 0.0 0.00 0.00 0.00 71 1020.1
20181020054517 51 0.0 0.0 0.00 0.00 0.00 70 1020.0
20181020053516 51 0.0 0.0 0.00 0.00 0.00 67 1020.0
20181020052520 52 0.0 0.0 0.00 0.00 0.00 66 1019.9
20181020051518 52 0.0 0.0 0.00 0.00 0.00 64 1020.0
20181020050518 53 0.0 0.0 0.00 0.00 0.00 64 1020.0
20181020045520 53 180 0.0 1.0 0.00 0.00 0.00 63 1019.9
20181020044516 53 0.0 0.0 0.00 0.00 0.00 63 1019.8
20181020043519 54 180 0.0 1.0 0.00 0.00 0.00 65 1019.7
20181020042518 54 180 0.0 1.0 0.00 0.00 0.00 64 1019.6
20181020041520 54 0.0 0.0 0.00 0.00 0.00 64 1019.6
20181020040516 55 225 0.0 1.0 0.00 0.00 0.00 63 1019.7
20181020035517 55 202 0.0 1.0 0.00 0.00 0.00 64 1019.7
20181020034517 56 0.0 0.0 0.00 0.00 0.00 62 1019.6
20181020033517 56 0.0 0.0 0.00 0.00 0.00 61 1019.6
20181020032519 57 0.0 0.0 0.00 0.00 0.00 60 1019.6
20181020031519 58 0.0 0.0 0.00 0.00 0.00 58 1019.5
20181020030520 58 0.0 0.0 0.00 0.00 0.00 57 1019.5
20181020025518 59 0.0 0.0 0.00 0.00 0.00 54 1019.4
20181020024517 61 0.0 0.0 0.00 0.00 0.00 52 1019.4
20181020023520 62 0.0 0.0 0.00 0.00 0.00 51 1019.4
20181020022516 61 0.0 0.0 0.00 0.00 0.00 52 1019.4
20181020021517 62 0.0 0.0 0.00 0.00 0.00 51 1019.3
20181020020519 63 0.0 0.0 0.00 0.00 0.00 51 1019.2
20181020015520 64 45 0.0 1.0 0.00 0.00 0.00 48 1019.1
20181020014516 65 0.0 0.0 0.00 0.00 0.00 48 1019.1
20181020013519 67 0.0 0.0 0.00 0.00 0.00 46 1019.0
20181020012525 68 0.0 0.0 0.00 0.00 0.00 43 1019.0
20181020011519 69 0.0 0.0 0.00 0.00 0.00 40 1018.9